Location: Bremen
(53.0833°N, 8.8000°E)
Time: 21:52:51
(UTC+02:00)

X-37B - Visible Passes

Search period start: 26 June 2022 00:00
Search period end: 06 July 2022 00:00
Orbit: 326 x 345 km, 45.0° (Epoch: 25 June)

Date Brightness Start Highest point End Pass type
(mag) Time Alt. Az. Time Alt. Az. Time Alt. Az.
26 Jun 2.5 03:18:48 12° S 03:18:48 12° S 03:19:20 10° SSE visible
28 Jun 2.5 23:32:15 10° SSW 23:32:47 12° S 23:32:47 12° S visible
29 Jun 2.3 23:51:55 10° SW 23:53:00 15° SSW 23:53:00 15° SSW visible
01 Jul 2.5 00:12:00 10° SW 00:12:41 13° SSW 00:12:41 13° SSW visible
01 Jul 2.1 22:57:17 10° SW 22:59:06 16° S 23:00:53 10° SE visible
02 Jul 2.1 23:17:21 10° SW 23:19:11 16° S 23:20:10 14° SSE visible
03 Jul 2.4 23:37:46 10° SW 23:39:14 13° SSW 23:39:21 13° S visible
05 Jul 2.5 22:43:04 10° SW 22:44:32 13° SSW 22:45:59 10° SSE visible
